Location: Henham
(51.9333°N, 0.2500°E)
Time: 12:15:18
(UTC+00:00)

STARLINK-39 - Pass Details

Date: 23 October 2019
Orbit: 548 x 551 km, 53.0° (Epoch: 18 November)

Event Time Altitude Azimuth Distance (km) Brightness Sun altitude
Rises 17:47:44 0° 274° (W) 2,718 9.2 -9.7°
Reaches altitude 10° 17:49:59 10° 276° (W) 1,825 7.8 -10.0°
Maximum altitude 17:54:07 76° 2° (N) 572 3.6 -10.7°
Enters shadow 17:57:21 16° 88° (E) 1,462 5.1 -11.2°
